Location: Gleizolles
(44.4833°N, 6.7667°E)
Time: 20:39:19
(UTC+00:00)

A-11 Canister half - Pass Details

Date: 02 July 2024
Orbit: 1524 x 1684 km, 47.3° (Epoch: 18 July)

Event Time Altitude Azimuth Distance (km) Brightness Sun altitude
Rises 12:04:50 0° 268° (W) 4,770 11.7 67.8°
Reaches altitude 10° 12:07:58 10° 270° (W) 3,765 11.3 67.6°
Maximum altitude 12:17:30 76° 356° (N) 1,583 10.2 67.0°
Drops below altitude 10° 12:26:49 10° 83° (E) 3,691 11.0 66.2°
Sets 12:29:52 0° 85° (E) 4,672 11.4 65.9°
